| time (UTC) | temp F | wind direction | speed knots | gust knots | rain 1hr in | rain 24hr in | rain mn in | humidity % | barometer mb |
| 20260505070055 | 55 | 97 | 2.6 | 6.1 | 0.00 | 0.01 | 0.01 | 82 | 1004.0 |
| 20260505064554 | 56 | 158 | 1.7 | 6.1 | 0.01 | 0.01 | 0.01 | 82 | 1004.0 |
| 20260505063115 | 58 | 147 | 0.9 | 6.1 | 0.01 | 0.01 | 0.01 | 80 | 1003.9 |
| 20260505061618 | 58 | 140 | 1.7 | 6.1 | 0.01 | 0.01 | 0.01 | 80 | 1003.8 |
| 20260505060057 | 59 | 163 | 3.5 | 12.2 | 0.01 | 0.01 | 0.01 | 77 | 1004.1 |
| 20260505054547 | 60 | 143 | 4.3 | 11.3 | 0.00 | 0.00 | 0.00 | 68 | 1004.2 |
| 20260505053046 | 61 | 194 | 1.7 | 8.7 | 0.00 | 0.00 | 0.00 | 64 | 1004.1 |
| 20260505051606 | 63 | 227 | 3.5 | 14.8 | 0.00 | 0.00 | 0.00 | 57 | 1004.2 |
| 20260505041528 | 53 | 103 | 0.0 | 2.6 | 0.00 | 0.00 | 0.00 | 70 | 1004.2 |
| 20260505040026 | 52 | 105 | 0.0 | 1.7 | 0.00 | 0.00 | 0.00 | 72 | 1003.9 |
| 20260505034523 | 52 | 130 | 0.0 | 0.9 | 0.00 | 0.00 | 0.00 | 73 | 1003.9 |
| 20260505033025 | 52 | 148 | 0.0 | 0.9 | 0.00 | 0.00 | 0.00 | 72 | 1003.9 |
| 20260505031523 | 51 | 122 | 0.0 | 0.9 | 0.00 | 0.00 | 0.00 | 73 | 1004.0 |
| 20260505030022 | 51 | 137 | 0.0 | 0.9 | 0.00 | 0.00 | 0.00 | 73 | 1003.9 |
| 20260505024520 | 52 | 151 | 0.0 | 0.9 | 0.00 | 0.00 | 0.00 | 71 | 1004.0 |
| 20260505023020 | 52 | 112 | 0.0 | 0.9 | 0.00 | 0.00 | 0.00 | 70 | 1004.1 |
| 20260505021521 | 52 | 143 | 0.0 | 0.9 | 0.00 | 0.00 | 0.00 | 70 | 1004.2 |
| 20260505020018 | 53 | 148 | 0.0 | 0.9 | 0.00 | 0.00 | 0.00 | 67 | 1004.0 |
| 20260505014518 | 53 | 160 | 0.0 | 1.7 | 0.00 | 0.00 | 0.00 | 68 | 1004.0 |
| 20260505013017 | 53 | 153 | 0.0 | 1.7 | 0.00 | 0.00 | 0.00 | 69 | 1003.9 |
| 20260505011517 | 54 | 153 | 0.0 | 1.7 | 0.00 | 0.00 | 0.00 | 66 | 1003.9 |
| 20260505010014 | 55 | 172 | 0.0 | 0.9 | 0.00 | 0.00 | 0.00 | 63 | 1003.8 |
| 20260505004513 | 56 | 153 | 0.0 | 1.7 | 0.00 | 0.00 | 0.00 | 60 | 1003.8 |
| 20260505003020 | 58 | 114 | 0.0 | 0.9 | 0.00 | 0.00 | 0.00 | 56 | 1003.7 |
| 20260505001512 | 60 | 113 | 0.0 | 0.9 | 0.00 | 0.00 | 0.00 | 52 | 1003.7 |
| 20260505000011 | 62 | 111 | 0.0 | 0.9 | 0.00 | 0.00 | 0.00 | 49 | 1003.6 |
| 20260504234511 | 65 | 121 | 0.0 | 0.9 | 0.00 | 0.00 | 0.00 | 43 | 1003.6 |
| 20260504233010 | 70 | 121 | 0.0 | 0.9 | 0.00 | 0.00 | 0.00 | 37 | 1003.4 |
| 20260504231509 | 72 | 220 | 0.0 | 2.6 | 0.00 | 0.00 | 0.00 | 33 | 1003.4 |
| 20260504230009 | 72 | 143 | 0.0 | 2.6 | 0.00 | 0.00 | 0.00 | 33 | 1003.4 |
| 20260504224507 | 72 | 243 | 0.0 | 5.2 | 0.00 | 0.00 | 0.00 | 33 | 1003.5 |
| 20260504223005 | 73 | 195 | 1.7 | 7.8 | 0.00 | 0.00 | 0.00 | 31 | 1003.7 |
| 20260504221504 | 74 | 240 | 1.7 | 6.1 | 0.00 | 0.00 | 0.00 | 31 | 1003.7 |
| 20260504220003 | 73 | 237 | 3.5 | 8.7 | 0.00 | 0.00 | 0.00 | 31 | 1003.8 |
| 20260504214501 | 74 | 264 | 3.5 | 7.8 | 0.00 | 0.00 | 0.00 | 30 | 1003.9 |
| 20260504213058 | 73 | 153 | 2.6 | 8.7 | 0.00 | 0.00 | 0.00 | 32 | 1003.9 |
| 20260504211556 | 73 | 236 | 3.5 | 8.7 | 0.00 | 0.00 | 0.00 | 33 | 1004.0 |
| 20260504210106 | 73 | 239 | 5.2 | 10.4 | 0.00 | 0.00 | 0.00 | 33 | 1004.2 |
| 20260504204559 | 72 | 248 | 5.2 | 11.3 | 0.00 | 0.00 | 0.00 | 35 | 1004.2 |
| 20260504203103 | 72 | 297 | 4.3 | 15.6 | 0.00 | 0.00 | 0.00 | 35 | 1004.3 |
| 20260504201547 | 72 | 160 | 5.2 | 11.3 | 0.00 | 0.00 | 0.00 | 35 | 1004.5 |
| 20260504200045 | 71 | 229 | 2.6 | 14.8 | 0.00 | 0.00 | 0.00 | 38 | 1004.6 |
| 20260504194541 | 71 | 216 | 4.3 | 11.3 | 0.00 | 0.00 | 0.00 | 39 | 1004.9 |
| 20260504193038 | 70 | 216 | 5.2 | 13.9 | 0.00 | 0.00 | 0.00 | 39 | 1005.1 |
| 20260504191535 | 70 | 118 | 7.8 | 13.9 | 0.00 | 0.00 | 0.00 | 38 | 1005.4 |
| 20260504190040 | 70 | 238 | 6.1 | 12.2 | 0.00 | 0.00 | 0.00 | 39 | 1005.6 |
| 20260504184533 | 70 | 229 | 3.5 | 11.3 | 0.00 | 0.00 | 0.00 | 41 | 1005.7 |
| 20260504183032 | 70 | 217 | 6.1 | 11.3 | 0.00 | 0.00 | 0.00 | 41 | 1005.9 |
| 20260504181525 | 69 | 210 | 2.6 | 11.3 | 0.00 | 0.00 | 0.00 | 43 | 1006.1 |
| 20260504180022 | 68 | 258 | 4.3 | 13.9 | 0.00 | 0.00 | 0.00 | 44 | 1006.1 |
| 20260504174520 | 67 | 203 | 7.0 | 15.6 | 0.00 | 0.00 | 0.00 | 45 | 1006.1 |
| 20260504173018 | 67 | 284 | 7.0 | 14.8 | 0.00 | 0.00 | 0.00 | 45 | 1006.3 |
| 20260504171517 | 67 | 230 | 7.0 | 13.0 | 0.00 | 0.00 | 0.00 | 45 | 1006.4 |
| 20260504081601 | 48 | 176 | 1.7 | 5.2 | 0.00 | 0.00 | 0.00 | 58 | 1009.1 |